Morris, MN

10:53 AM CDT on July 24, 2017 (GMT -0500)
Morris Municipal

Weather History for KMOX - January, 2013

Change the Weather History Date:

Saturday, January 19, 2013

  Actual Average Record
Temperature  
Mean Temperature 18 °F -  
Max Temperature 37 °F 16 °F 42 °F (2015)
Min Temperature -2 °F 1 °F -18 °F (2008)
Degree Days  
Heating Degree Days 48    
Moisture  
Dew Point 13 °F    
Average Humidity 81    
Maximum Humidity 100    
Minimum Humidity 68    
Precipitation  
Precipitation 0.00 in - - ()
Sea Level Pressure  
Sea Level Pressure 29.93 in    
Wind  
Wind Speed 15 mph (NW)    
Max Wind Speed 43 mph    
Max Gust Speed 53 mph    
Visibility 8 miles    
Events Snow    
Averages and records for this station are not official NWS values.
T = Trace of Precipitation, MM = Missing Value Source: NWS Daily Summary

Daily Weather History Graph

Daily Weather History Graph

Search for Another Location

Airport or City:

Trip Planner

Search our weather history database for the weather conditions in past years. The results will help you decide how hot, cold, wet, or windy it might be!

Date:

Astronomy

Jan. 19, 2013 Rise Set
Actual Time 7:57 AM CST 5:12 PM CST
Civil Twilight 7:24 AM CST 5:45 PM CST
Nautical Twilight 6:48 AM CST 6:21 PM CST
Astronomical Twilight 6:12 AM CST 6:56 PM CST
Moon 11:42 AM CST (1/19) 1:28 AM CST (1/19)
Length of Visible Light 10h 20m
Length of Day
9h 14m
First Quarter, 57% of the Moon is Illuminated
Jan 19
First Quarter
Jan 26
Full
Feb 3
Last Quarter
Feb 10
New
Feb 17
First Quarter

Hourly Weather History & Observations

Time (CST) Temp. Windchill Dew Point Humidity Pressure Visibility Wind Dir Wind Speed Gust Speed Precip Events Conditions
12:10 AM 24.8 °F 19.1 °F 23.0 °F 93% 29.71 in 10.0 mi SE 4.6 mph - N/A   Clear
12:30 AM 24.8 °F 17.9 °F 23.0 °F 93% 29.70 in 10.0 mi SSE 5.8 mph - N/A   Clear
12:50 AM 23.0 °F 15.8 °F 21.2 °F 93% 29.70 in 10.0 mi SSE 5.8 mph - N/A   Clear
1:10 AM 24.8 °F 16.9 °F 21.2 °F 86% 29.70 in 10.0 mi SSE 6.9 mph - N/A   Clear
1:30 AM 21.2 °F 14.9 °F 21.2 °F 100% 29.69 in 10.0 mi SE 4.6 mph - N/A   Clear
1:50 AM 24.8 °F 16.9 °F 21.2 °F 86% 29.68 in 10.0 mi SSE 6.9 mph - N/A   Clear
2:10 AM 24.8 °F 14.0 °F 23.0 °F 93% 29.66 in 10.0 mi South 11.5 mph - N/A   Mostly Cloudy
2:30 AM 26.6 °F 22.6 °F 24.8 °F 93% 29.70 in 10.0 mi West 3.5 mph - N/A   Mostly Cloudy
2:50 AM 26.6 °F - 24.8 °F 93% 29.70 in 10.0 mi Calm Calm - N/A   Scattered Clouds
3:10 AM 24.8 °F - 21.2 °F 86% 29.68 in 10.0 mi Calm Calm - N/A   Clear
3:30 AM 26.6 °F 22.6 °F 24.8 °F 93% 29.69 in 10.0 mi WSW 3.5 mph - N/A   Clear
3:50 AM 24.8 °F - 23.0 °F 93% 29.68 in 10.0 mi Calm Calm - N/A   Clear
4:10 AM 24.8 °F 19.1 °F 24.8 °F 100% 29.69 in 10.0 mi West 4.6 mph - N/A   Clear
4:30 AM 26.6 °F 20.0 °F 24.8 °F 93% 29.68 in 10.0 mi WNW 5.8 mph - N/A   Clear
4:50 AM 26.6 °F 19.1 °F 24.8 °F 93% 29.67 in 10.0 mi West 6.9 mph - N/A   Scattered Clouds
5:10 AM 28.4 °F 21.2 °F 24.8 °F 86% 29.67 in 10.0 mi West 6.9 mph - N/A   Scattered Clouds
5:30 AM 28.4 °F 19.7 °F 24.8 °F 86% 29.68 in 10.0 mi WNW 9.2 mph - N/A   Scattered Clouds
5:50 AM 30.2 °F 21.9 °F 26.6 °F 86% 29.69 in 10.0 mi WNW 9.2 mph - N/A   Mostly Cloudy
6:10 AM 32.0 °F 24.8 °F 26.6 °F 80% 29.69 in 10.0 mi WNW 8.1 mph - N/A   Mostly Cloudy
6:30 AM 32.0 °F 23.6 °F 26.6 °F 80% 29.70 in 10.0 mi WNW 10.4 mph - N/A   Scattered Clouds
6:50 AM 33.8 °F 24.3 °F 28.4 °F 81% 29.71 in 10.0 mi WNW 13.8 mph - N/A   Scattered Clouds
7:10 AM 33.8 °F 24.8 °F 28.4 °F 81% 29.72 in 10.0 mi WNW 12.7 mph - N/A   Mostly Cloudy
7:30 AM 33.8 °F 25.8 °F 28.4 °F 81% 29.72 in 10.0 mi WNW 10.4 mph - N/A   Mostly Cloudy
7:50 AM 30.2 °F 21.9 °F 26.6 °F 86% 29.73 in 10.0 mi WNW 9.2 mph - N/A   Scattered Clouds
8:10 AM 32.0 °F 23.6 °F 26.6 °F 80% 29.73 in 10.0 mi WNW 10.4 mph - N/A   Scattered Clouds
8:30 AM 33.8 °F 24.8 °F 28.4 °F 81% 29.74 in 10.0 mi WNW 12.7 mph - N/A   Mostly Cloudy
8:50 AM 33.8 °F 23.5 °F 28.4 °F 81% 29.75 in 10.0 mi WNW 16.1 mph - N/A   Scattered Clouds
9:30 AM 35.6 °F 24.8 °F 30.2 °F 81% 29.78 in 10.0 mi WNW 19.6 mph - N/A   Scattered Clouds
9:50 AM 35.6 °F 24.5 °F 30.2 °F 81% 29.78 in 10.0 mi WNW 20.7 mph - N/A   Scattered Clouds
10:10 AM 35.6 °F 25.2 °F 30.2 °F 81% 29.79 in 10.0 mi WNW 18.4 mph - N/A   Mostly Cloudy
10:30 AM 37.4 °F 27.5 °F 30.2 °F 75% 29.79 in 10.0 mi WNW 18.4 mph 23.0 mph N/A   Mostly Cloudy
10:50 AM 37.4 °F 26.9 °F 30.2 °F 75% 29.80 in 10.0 mi WNW 20.7 mph 25.3 mph N/A   Scattered Clouds
11:10 AM 35.6 °F 23.2 °F 30.2 °F 81% 29.79 in 10.0 mi WNW 26.5 mph 32.2 mph N/A   Mostly Cloudy
11:30 AM 35.6 °F 20.5 °F 28.4 °F 75% 29.83 in 10.0 mi NNW 42.6 mph 50.6 mph N/A   Mostly Cloudy
11:50 AM 26.6 °F 8.1 °F 21.2 °F 80% 29.88 in 10.0 mi NNW 41.4 mph 51.8 mph N/A   Overcast
12:10 PM 23.0 °F 3.4 °F 15.8 °F 74% 29.89 in 10.0 mi NNW 39.1 mph 52.9 mph N/A   Overcast
12:30 PM 21.2 °F 0.9 °F 14.0 °F 74% 29.90 in 10.0 mi NNW 39.1 mph 50.6 mph N/A   Overcast
12:50 PM 19.4 °F -1.8 °F 12.2 °F 74% 29.90 in 10.0 mi NW 40.3 mph 48.3 mph N/A   Overcast
1:10 PM 19.4 °F -1.1 °F 10.4 °F 68% 29.92 in 10.0 mi NNW 36.8 mph 49.5 mph N/A   Overcast
1:30 PM 19.4 °F -1.3 °F 10.4 °F 68% 29.94 in 7.0 mi NNW 38.0 mph 44.9 mph N/A   Mostly Cloudy
1:50 PM 17.6 °F -2.8 °F 8.6 °F 68% 29.95 in 10.0 mi NNW 33.4 mph 43.7 mph N/A   Overcast
2:10 PM 15.8 °F -4.4 °F 8.6 °F 73% 29.96 in 7.0 mi NW 29.9 mph 39.1 mph N/A   Overcast
2:30 PM 15.8 °F -4.4 °F 8.6 °F 73% 29.98 in 10.0 mi NNW 29.9 mph 40.3 mph N/A   Mostly Cloudy
2:50 PM 12.2 °F -10.2 °F 6.8 °F 79% 29.99 in 10.0 mi NNW 33.4 mph 44.9 mph N/A   Mostly Cloudy
3:10 PM 12.2 °F -10.8 °F 6.8 °F 79% 30.00 in 7.0 mi NW 35.7 mph 44.9 mph N/A   Mostly Cloudy
3:30 PM 12.2 °F -10.5 °F 6.8 °F 79% 30.02 in 1.2 mi NW 34.5 mph 40.3 mph N/A Snow Light Snow
3:50 PM 10.4 °F -11.7 °F 6.8 °F 85% 30.05 in 0.2 mi NNW 29.9 mph 41.4 mph N/A Snow Light Snow
4:10 PM 8.6 °F -14.8 °F 3.2 °F 79% 30.07 in 5.0 mi NNW 32.2 mph 42.6 mph N/A   Haze
4:30 PM 8.6 °F -15.4 °F 3.2 °F 79% 30.10 in 1.0 mi NW 34.5 mph 41.4 mph N/A Snow Light Snow
4:50 PM 6.8 °F -17.3 °F 1.4 °F 79% 30.12 in 2.0 mi NNW 32.2 mph 46.0 mph N/A   Haze
5:10 PM 6.8 °F -17.6 °F -0.4 °F 72% 30.13 in 5.0 mi NW 33.4 mph 41.4 mph N/A   Haze
5:30 PM 6.8 °F -15.9 °F -0.4 °F 72% 30.15 in 3.0 mi NNW 27.6 mph 39.1 mph N/A Snow Light Snow
5:50 PM 5.0 °F -20.4 °F 1.4 °F 85% 30.16 in 0.8 mi NNW 34.5 mph 39.1 mph N/A Snow Light Snow
6:10 PM 3.2 °F -21.8 °F -0.4 °F 85% 30.18 in 5.0 mi NNW 31.1 mph 40.3 mph N/A   Haze
6:30 PM 3.2 °F -22.5 °F -2.2 °F 78% 30.20 in 5.0 mi NW 33.4 mph 41.4 mph N/A Snow Light Snow
6:50 PM 3.2 °F -21.1 °F -2.2 °F 78% 30.21 in 7.0 mi NW 28.8 mph 36.8 mph N/A   Mostly Cloudy
7:10 PM 3.2 °F -21.1 °F -2.2 °F 78% 30.22 in 7.0 mi NNW 28.8 mph 41.4 mph N/A   Overcast
7:30 PM 1.4 °F -25.0 °F -4.0 °F 78% 30.23 in 7.0 mi NW 33.4 mph 41.4 mph N/A   Mostly Cloudy
7:50 PM 1.4 °F -22.7 °F -4.0 °F 78% 30.24 in 10.0 mi NNW 26.5 mph 40.3 mph N/A   Scattered Clouds
8:10 PM 1.4 °F -22.7 °F -5.8 °F 72% 30.26 in 7.0 mi NW 26.5 mph 36.8 mph N/A   Mostly Cloudy
8:30 PM 1.4 °F -24.3 °F -2.2 °F 85% 30.25 in 1.8 mi NW 31.1 mph 35.7 mph N/A Snow Light Snow
8:50 PM 1.4 °F -22.7 °F -2.2 °F 85% 30.26 in 1.2 mi NW 26.5 mph 33.4 mph N/A Snow Light Snow
9:10 PM 1.4 °F -22.3 °F -5.8 °F 72% 30.26 in 7.0 mi NNW 25.3 mph 33.4 mph N/A   Mostly Cloudy
9:30 PM -0.4 °F -24.7 °F -5.8 °F 78% 30.26 in 7.0 mi NNW 25.3 mph 29.9 mph N/A   Overcast
9:50 PM -0.4 °F -23.8 °F -7.6 °F 72% 30.26 in 10.0 mi NW 23.0 mph 27.6 mph N/A   Overcast
10:10 PM -0.4 °F -23.8 °F -5.8 °F 78% 30.27 in 3.0 mi NW 23.0 mph 29.9 mph N/A   Haze
10:30 PM -0.4 °F -23.3 °F -7.6 °F 72% 30.30 in 10.0 mi NW 21.9 mph 28.8 mph N/A   Overcast
10:50 PM -0.4 °F -23.3 °F -7.6 °F 72% 30.31 in 7.0 mi NW 21.9 mph 28.8 mph N/A   Overcast
11:10 PM -0.4 °F -23.8 °F -7.6 °F 72% 30.30 in 7.0 mi NW 23.0 mph 26.5 mph N/A   Overcast
11:30 PM -2.2 °F -23.5 °F -7.6 °F 78% 30.29 in 10.0 mi NNW 17.3 mph 27.6 mph N/A   Mostly Cloudy
11:50 PM -2.2 °F -23.5 °F -7.6 °F 78% 30.28 in 10.0 mi NNW 17.3 mph - N/A   Mostly Cloudy